Location: Praha
(50.0830°N, 14.4670°E)
Time: 19:50:42
(UTC+01:00)

ISS - Pass Details

Date: 06 December 2019
Orbit: 411 x 421 km, 51.6° (Epoch: 08 December)

Event Time Altitude Azimuth Distance (km) Brightness Sun altitude
Rises 16:48:12 0° 282° (WNW) 2,356 1.0 -7.3°
Reaches altitude 10° 16:50:18 10° 284° (WNW) 1,494 -0.1 -7.7°
Maximum altitude 16:53:39 73° 9° (N) 441 -3.8 -8.1°
Drops below altitude 10° 16:57:00 10° 95° (E) 1,497 -1.5 -8.6°
Enters shadow 16:57:15 - 96° (E) 1,596 -1.3 -8.7°
